Location: Lecco
(45.8566°N, 9.3977°E)
Time: 11:23:52
(UTC+02:00)

A-11 Canister half - Visible Passes

Search period start: 14 August 2020 00:00
Search period end: 24 August 2020 00:00
Orbit: 1513 x 1687 km, 47.2° (Epoch: 13 August)

Date Brightness Start Highest point End Pass type
(mag) Time Alt. Az. Time Alt. Az. Time Alt. Az.
14 Aug 10.4 02:00:51 10° W 02:05:19 20° WSW 02:05:19 20° WSW visible
14 Aug 9.2 21:26:39 10° W 21:36:31 85° N 21:46:41 10° E visible
14 Aug 9.1 23:31:44 10° WNW 23:41:28 62° SSW 23:44:57 43° SSE visible
15 Aug 10.3 01:37:44 10° W 01:43:06 22° WSW 01:43:06 22° WSW visible
15 Aug 9.2 21:03:44 10° W 21:13:32 84° N 21:23:41 10° E visible
15 Aug 9.1 23:08:47 10° WNW 23:18:33 65° SSW 23:22:47 38° SE visible
16 Aug 10.2 01:14:39 10° W 01:20:57 25° WSW 01:20:57 25° WSW visible
16 Aug 9.1 22:45:52 10° WNW 22:55:38 67° SSW 23:00:41 33° SE visible
17 Aug 10.1 00:51:34 10° W 00:58:51 27° SW 00:58:51 27° SW visible
17 Aug 9.2 22:22:56 10° WNW 22:32:42 70° SSW 22:38:38 28° SE visible
18 Aug 10.0 00:28:31 10° WNW 00:36:35 29° SW 00:36:48 29° SW visible
18 Aug 9.2 22:00:01 10° WNW 22:09:46 72° SSW 22:16:37 24° SE visible
19 Aug 9.9 00:05:29 10° WNW 00:13:43 31° SW 00:14:48 30° SW visible
19 Aug 9.2 21:37:04 10° WNW 21:46:49 74° SSW 21:54:40 19° SE visible
19 Aug 9.9 23:42:28 10° WNW 23:50:51 33° SW 23:52:51 30° SSW visible
20 Aug 9.2 21:14:09 10° WNW 21:23:53 76° SSW 21:32:46 14° ESE visible
20 Aug 9.9 23:19:28 10° WNW 23:28:00 34° SW 23:30:56 29° SSW visible
21 Aug 9.2 20:51:14 10° WNW 21:00:57 78° SSW 21:10:54 10° ESE visible
21 Aug 9.9 22:56:28 10° WNW 23:05:08 36° SW 23:09:05 27° S visible
22 Aug 9.2 20:28:19 10° WNW 20:38:01 80° SSW 20:48:03 10° ESE visible
22 Aug 9.9 22:33:29 10° WNW 22:42:16 38° SW 22:47:17 24° S visible
23 Aug 9.8 22:10:31 10° WNW 22:19:23 40° SW 22:25:33 21° SSE visible
